[[{"header":{"parameterUnit":"m.s-1","parameterCategory":2,"la1":30.2991,"la2":30.254,"lo1":-89.0895,"lo2":-89.0444,"dy":0.0017,"dx":0.0017,"nx":28,"ny":28,"refTime":"2024-03-06T03:00:00:Z","depth":"0","parameterNumber":2,"parameterNumberName":"U-component_of_CURRENTS"},"data":[0,0,0,0,0,0,0,0,0,0,0,0,0,0,0,0,0,0,0,0,0,0,0,0,0,0,0,0,0,0,0,0,0,0,0,0,0,0,0,0,0,0,0,0,0,0,0,0,0,0,0,0,0,0,0,0,0,0,0.4384,0.4385,0,0.4432,0.4432,0.4432,0.4418,0.4418,0.4417,0.4416,0.4372,0.4371,0.4371,0,0,0,0,0,0,0,0,0,0,0,0,0,0.4322,0.4323,0.4384,0.4385,0.4386,0.4432,0.4432,0.4432,0.4418,0.4418,0.4417,0.4416,0.4372,0.4371,0.4371,0,0,0,0,0,0,0,0,0,0,0,0,0,0.4353,0.4323,0.4384,0.4387,0.4388,0.4432,0.4432,0.4432,0.4418,0.4417,0.4417,0.4416,0.4372,0.4372,0.4371,0.4383,0,0,0.4368,0.4367,0,0,0,0,0,0,0,0,0.4352,0.4355,0.4386,0.4387,0.4389,0.4422,0.4394,0.4413,0.4419,0.4403,0.4416,0.4415,0.4383,0.4382,0.4388,0.4381,0.4379,0.4368,0.4367,0.4367,0.4367,0,0,0,0,0,0,0,0.4349,0.4353,0.4398,0.4387,0.4389,0.4402,0.4404,0.4398,0.4392,0.4404,0.4404,0.4416,0.4383,0.4389,0.4387,0.4378,0.4368,0.4367,0.4366,0.4366,0.4422,0.4424,0,0,0,0,0,0,0.4351,0.4351,0.4397,0.44,0.4372,0.4404,0.4406,0.4409,0.4395,0.4394,0.4417,0.4416,0.4391,0.4388,0.4385,0.4429,0.4367,0.4366,0.4365,0.442,0.4422,0.4425,0,0,0,0,0,0,0.4349,0.4354,0.4395,0.4381,0.4387,0.4406,0.4408,0.441,0.4423,0.4407,0.4403,0.4429,0.439,0.4386,0.4402,0.4425,0.4365,0.4365,0.4418,0.4421,0.4424,0.4496,0,0,0,0,0,0,0.4347,0.4353,0.4356,0.4381,0.4388,0.4425,0.441,0.4412,0.4433,0.4432,0.4416,0.441,0.4389,0.4403,0.4401,0.4423,0.4364,0.4415,0.4419,0.4423,0.4491,0.4501,0.451,0,0,0,0,0,0.4345,0.4347,0.4356,0.4362,0.4392,0.4427,0.4432,0.4439,0.4435,0.4445,0.4446,0.4411,0.4426,0.4405,0.4401,0.4423,0.4413,0.4418,0.4422,0.4487,0.4499,0.451,0,0,0,0,0,0,0.431,0.4347,0.4357,0.4367,0.4401,0.4426,0.4434,0.4449,0.4459,0.4454,0.4436,0.4432,0.4457,0.4436,0.4414,0.4454,0.4414,0.4418,0.4465,0.4476,0.4485,0.4498,0.4363,0,0,0,0,0,0.431,0.4326,0.4364,0.4374,0.4388,0.4416,0.4432,0.4445,0.4461,0.4465,0.446,0.446,0.4475,0.4471,0.4475,0.4492,0.4493,0.4506,0.4516,0.4524,0.4535,0.4581,0.4595,0.444,0.444,0.444,0,0,0.4305,0.4324,0.4335,0.4371,0.4389,0.4423,0.4422,0.445,0.4483,0.4457,0.4487,0.4493,0.449,0.4517,0.4525,0.4499,0.4568,0.453,0.4536,0.4543,0.4587,0.4602,0.4616,0.4443,0.4442,0.4442,0,0,0.4301,0.4313,0.433,0.4362,0.4403,0.4428,0.4442,0.4479,0.4495,0.4535,0.4534,0.4564,0.4566,0.4583,0.4588,0.4654,0.4622,0.4647,0.4695,0.474,0.4753,0.4764,0.4778,0.479,0.4644,0.4644,0.4644,0,0.4294,0.4309,0.4341,0.4368,0.4391,0.4433,0.4459,0.4497,0.4539,0.4562,0.4549,0.4607,0.4603,0.4657,0.4684,0.4675,0.4683,0.4648,0.4752,0.4764,0.4774,0.4785,0.4797,0.4648,0.4648,0.4647,0.4647,0,0.4312,0.4324,0.4333,0.4384,0.4421,0.4444,0.4506,0.4544,0.457,0.4611,0.4671,0.4687,0.4717,0.4729,0.4726,0.4803,0.4779,0.4764,0.4721,0.4794,0.4801,0.4812,0.4654,0.4652,0.4651,0.465,0,0,0.4267,0.4335,0.4328,0.4351,0.4424,0.4451,0.4519,0.4585,0.4631,0.4685,0.4739,0.4796,0.4813,0.4824,0.483,0.4876,0.4959,0.4855,0.4856,0.4864,0.5042,0.4967,0.4971,0.4962,0.4965,0.4967,0.5013,0,0.4257,0.4296,0.4338,0.4378,0.44,0.4467,0.4526,0.4604,0.4663,0.4732,0.4789,0.4842,0.4847,0.4863,0.4919,0.496,0.4995,0.4947,0.4974,0.4974,0.4896,0.4985,0.4862,0.4889,0.5024,0.5026,0.5028,0,0.4237,0.4266,0.43,0.4365,0.4381,0.4427,0.4516,0.4581,0.4705,0.4753,0.4836,0.4879,0.4977,0.4953,0.5068,0.5038,0.5048,0.5068,0.507,0.4984,0.4922,0.4841,0.4905,0.4819,0.5045,0.5044,0.5042,0,0.4161,0.4222,0.4242,0.4268,0.4368,0.44,0.4461,0.4583,0.4642,0.4775,0.4831,0.4941,0.5005,0.506,0.5123,0.5099,0.5231,0.5191,0.5127,0.512,0.5013,0.4992,0.4993,0.5254,0.5254,0.5254,0.5254,0,0.4111,0.4118,0.421,0.422,0.4258,0.4355,0.4416,0.4502,0.463,0.4711,0.4836,0.491,0.5041,0.5128,0.5152,0.5193,0.5254,0.5158,0.5142,0.5032,0.5014,0.4929,0.4875,0.5256,0.5255,0.5255,0.5255,0,0.4015,0.4072,0.4097,0.419,0.422,0.4251,0.4376,0.4431,0.4572,0.4682,0.4726,0.4918,0.5041,0.514,0.5244,0.5227,0.5128,0.5244,0.5096,0.5061,0.4884,0.4838,0.462,0.4481,0.5173,0.5172,0.517,0,0.3966,0.3976,0.4051,0.4071,0.411,0.4178,0.4229,0.4376,0.4444,0.4671,0.4712,0.489,0.4992,0.5136,0.5169,0.5204,0.5062,0.5066,0.4995,0.4879,0.4817,0.4616,0.4501,0.488,0.4876,0.4873,0.4871,0,0.3878,0.3908,0.3933,0.3977,0.402,0.407,0.4158,0.42,0.4385,0.4488,0.4643,0.4749,0.4939,0.4952,0.5022,0.5023,0.4845,0.5005,0.4941,0.464,0.4367,0.4224,0.4828,0.4846,0.4849,0.4851,0.4852,0.4853,0.3801,0.3799,0.3843,0.3872,0.3915,0.3949,0.3942,0.4044,0.4125,0.4224,0.4448,0.4533,0.4717,0.4816,0.4786,0.4711,0.465,0.4605,0.4574,0.4393,0.4201,0.4734,0.4699,0.47,0.4701,0.4703,0.4704,0,0.3694,0.3719,0.3744,0.3756,0.3742,0.3821,0.3873,0.3835,0.3847,0.3989,0.4084,0.4262,0.4307,0.4419,0.4485,0.4348,0.4137,0.423,0.3957,0.3877,0.4429,0.4363,0.4185,0.4186,0.4186,0.4186,0.4186,0.4186,0.3644,0.3623,0.3638,0.3577,0.3586,0.3509,0.3503,0.3467,0.3515,0.3531,0.3598,0.3742,0.4078,0.4257,0.42,0.4093,0.379,0.3613,0.3564,0.4032,0.4066,0.4097,0.4026,0.378,0.378,0.2885,0.2879,0.2874]},{"header":{"parameterUnit":"m.s-1","parameterCategory":2,"la1":30.2991,"la2":30.254,"lo1":-89.0895,"lo2":-89.0444,"dy":0.0017,"dx":0.0017,"nx":28,"ny":28,"refTime":"2024-03-06T03:00:00:Z","depth":"0","parameterNumber":3,"parameterNumberName":"V-component_of_CURRENTS"},"data":[0,0,0,0,0,0,0,0,0,0,0,0,0,0,0,0,0,0,0,0,0,0,0,0,0,0,0,0,0,0,0,0,0,0,0,0,0,0,0,0,0,0,0,0,0,0,0,0,0,0,0,0,0,0,0,0,0,0,-0.0407,-0.0407,0,-0.047,-0.0471,-0.0472,-0.0515,-0.0515,-0.0515,-0.0515,-0.0595,-0.0597,-0.0599,0,0,0,0,0,0,0,0,0,0,0,0,0,-0.0363,-0.0364,-0.0407,-0.0408,-0.0408,-0.047,-0.0471,-0.0472,-0.0515,-0.0515,-0.0515,-0.0516,-0.0595,-0.0597,-0.0599,0,0,0,0,0,0,0,0,0,0,0,0,0,-0.04,-0.0364,-0.0407,-0.0437,-0.044,-0.047,-0.0471,-0.0472,-0.0515,-0.0515,-0.0515,-0.0516,-0.0594,-0.0597,-0.06,-0.0609,0,0,-0.0608,-0.0609,0,0,0,0,0,0,0,0,-0.0398,-0.0402,-0.0432,-0.0435,-0.0439,-0.0485,-0.0485,-0.0519,-0.0514,-0.0487,-0.0515,-0.0516,-0.0559,-0.0565,-0.0576,-0.0612,-0.0616,-0.0608,-0.061,-0.0611,-0.0612,0,0,0,0,0,0,0,-0.0395,-0.04,-0.0432,-0.0432,-0.0437,-0.0461,-0.0467,-0.0492,-0.052,-0.0489,-0.0492,-0.0499,-0.0562,-0.0573,-0.0579,-0.0617,-0.0608,-0.0611,-0.0612,-0.0614,-0.0673,-0.0673,0,0,0,0,0,0,-0.0384,-0.0397,-0.043,-0.0434,-0.0419,-0.0461,-0.0467,-0.047,-0.052,-0.0528,-0.0498,-0.05,-0.0568,-0.0575,-0.0581,-0.0579,-0.0611,-0.0614,-0.0615,-0.0673,-0.0673,-0.0673,0,0,0,0,0,0,-0.0383,-0.0386,-0.0428,-0.0417,-0.0424,-0.0461,-0.0464,-0.0471,-0.048,-0.0527,-0.0535,-0.05,-0.0569,-0.0578,-0.0605,-0.0583,-0.0615,-0.0618,-0.0673,-0.0673,-0.0673,-0.0585,0,0,0,0,0,0,-0.0381,-0.0386,-0.0383,-0.0416,-0.0424,-0.0435,-0.0464,-0.0472,-0.0483,-0.0487,-0.0531,-0.0539,-0.057,-0.06,-0.0607,-0.0588,-0.062,-0.0674,-0.0673,-0.0673,-0.0588,-0.0582,-0.0577,0,0,0,0,0,-0.038,-0.0368,-0.0383,-0.0387,-0.0419,-0.0434,-0.044,-0.0469,-0.0483,-0.048,-0.0517,-0.0537,-0.0604,-0.0602,-0.0611,-0.0591,-0.0674,-0.0673,-0.0673,-0.0591,-0.0583,-0.0577,0,0,0,0,0,0,-0.0348,-0.0372,-0.0389,-0.0386,-0.0406,-0.0441,-0.0441,-0.0462,-0.0489,-0.0492,-0.0538,-0.0548,-0.0566,-0.0595,-0.0592,-0.0611,-0.0641,-0.0643,-0.0576,-0.0569,-0.0563,-0.0517,-0.0622,0,0,0,0,0,-0.034,-0.0338,-0.0368,-0.0366,-0.0371,-0.0405,-0.0415,-0.0433,-0.0462,-0.0474,-0.0507,-0.0543,-0.0572,-0.0583,-0.0617,-0.0623,-0.0634,-0.0618,-0.0612,-0.0607,-0.0577,-0.0595,-0.0587,-0.0672,-0.0672,-0.0672,0,0,-0.0333,-0.0341,-0.0345,-0.0359,-0.0376,-0.0364,-0.0412,-0.0418,-0.0405,-0.0478,-0.0475,-0.0527,-0.0573,-0.0585,-0.0594,-0.0603,-0.0588,-0.0606,-0.0601,-0.0574,-0.0593,-0.0585,-0.0577,-0.0672,-0.0672,-0.0672,0,0,-0.0295,-0.0318,-0.0295,-0.0303,-0.0317,-0.0335,-0.0332,-0.0362,-0.0374,-0.0388,-0.0436,-0.0475,-0.0516,-0.0543,-0.0562,-0.0545,-0.0564,-0.0557,-0.0479,-0.0497,-0.0489,-0.0483,-0.0478,-0.0471,-0.0545,-0.0545,-0.0545,0,-0.0282,-0.0252,-0.0292,-0.0264,-0.0257,-0.0313,-0.0277,-0.0297,-0.0333,-0.0328,-0.0375,-0.0437,-0.0492,-0.0489,-0.049,-0.0528,-0.053,-0.0498,-0.0486,-0.048,-0.0475,-0.0472,-0.0465,-0.0541,-0.0541,-0.0542,-0.0542,0,-0.0218,-0.0196,-0.0181,-0.0161,-0.0163,-0.0145,-0.0172,-0.0176,-0.0207,-0.0226,-0.0246,-0.0333,-0.0362,-0.0396,-0.044,-0.0422,-0.0433,-0.0482,-0.0495,-0.046,-0.046,-0.0455,-0.0535,-0.0536,-0.0538,-0.0539,0,0,-0.0165,-0.0141,-0.0127,-0.0095,-0.0102,-0.0088,-0.0071,-0.0058,-0.0022,-0.0095,-0.0058,-0.0152,-0.0202,-0.0228,-0.0296,-0.0319,-0.0306,-0.037,-0.0373,-0.0347,-0.0314,-0.0335,-0.0332,-0.0346,-0.0345,-0.0344,-0.0326,0,-0.0091,-0.0009,-0.002,0.0058,0.0096,0.0059,0.009,0.0087,0.0066,0.0081,-0.0012,-0.0024,-0.0135,-0.0154,-0.0192,-0.0273,-0.0289,-0.0304,-0.0366,-0.0367,-0.0376,-0.0326,-0.0286,-0.0267,-0.0322,-0.0321,-0.032,0,-0.0007,0.0042,0.0131,0.0186,0.0202,0.0238,0.0289,0.0308,0.0301,0.0281,0.0244,0.0166,0.0118,0.0005,-0.0092,-0.009,-0.0183,-0.0258,-0.0261,-0.03,-0.0378,-0.0315,-0.0257,-0.0491,-0.0313,-0.0314,-0.0314,0,0.0078,0.0153,0.0235,0.0252,0.0298,0.034,0.0366,0.0379,0.0424,0.0413,0.0442,0.0349,0.0322,0.0189,0.0013,-0.003,-0.0084,-0.0173,-0.0273,-0.0275,-0.0262,-0.0265,-0.0419,-0.0231,-0.0231,-0.0231,-0.0231,0,0.017,0.0239,0.0288,0.0338,0.045,0.0441,0.0552,0.0559,0.0598,0.0693,0.056,0.0612,0.0367,0.029,0.0105,-0.0045,-0.0016,-0.0228,-0.0265,-0.0232,-0.0232,-0.0455,-0.0583,-0.023,-0.023,-0.0231,-0.0231,0,0.0249,0.0278,0.0381,0.0459,0.0495,0.0575,0.0676,0.0753,0.0773,0.0895,0.0897,0.0828,0.0732,0.0493,0.0292,0.0097,-0.0188,-0.0138,-0.0073,-0.0103,-0.0444,-0.0566,-0.072,-0.082,-0.024,-0.024,-0.0241,0,0.0295,0.0355,0.0477,0.0552,0.0597,0.0708,0.0792,0.0837,0.0933,0.1051,0.1131,0.1066,0.1068,0.0764,0.0396,0.009,-0.0152,-0.0101,-0.0202,-0.0429,-0.0593,-0.0694,-0.0775,-0.0145,-0.0145,-0.0144,-0.0144,0,0.0386,0.0427,0.0517,0.0669,0.0779,0.0904,0.1035,0.1138,0.1229,0.1359,0.152,0.1537,0.1246,0.0948,0.0486,0.0255,-0.0255,-0.0103,-0.0352,-0.053,-0.063,-0.0754,-0.0188,-0.014,-0.014,-0.014,-0.0141,-0.0141,0.0457,0.0535,0.0654,0.0799,0.093,0.11,0.1225,0.1388,0.1592,0.181,0.1809,0.1908,0.144,0.0823,0.0454,-0.0209,-0.024,-0.0427,-0.0551,-0.0628,-0.075,-0.0165,-0.0164,-0.0165,-0.0165,-0.0166,-0.0166,0,0.0552,0.0638,0.0774,0.0958,0.1113,0.1163,0.139,0.1538,0.1816,0.2028,0.2178,0.2049,0.1456,0.0829,-0.0062,-0.0567,-0.0758,-0.0845,-0.099,-0.105,-0.053,-0.0555,-0.0619,-0.0619,-0.0619,-0.0619,-0.0618,-0.0618,0.0609,0.0753,0.082,0.1085,0.1213,0.1435,0.1573,0.1815,0.2017,0.2315,0.2425,0.2451,0.1999,0.037,-0.0768,-0.1034,-0.1385,-0.1452,-0.1658,-0.1331,-0.1303,-0.1275,-0.1331,-0.1557,-0.1559,-0.2109,-0.2114,-0.2119]}],[{"header":{"parameterUnit":"m.s-1","parameterCategory":2,"la1":30.2991,"la2":30.254,"lo1":-89.0895,"lo2":-89.0444,"dy":0.0017,"dx":0.0017,"nx":28,"ny":28,"refTime":"2024-03-06T03:00:00:Z","depth":"2","parameterNumber":2,"parameterNumberName":"U-component_of_CURRENTS"},"data":[0,0,0,0,0,0,0,0,0,0,0,0,0,0,0,0,0,0,0,0,0,0,0,0,0,0,0,0,0,0,0,0,0,0,0,0,0,0,0,0,0,0,0,0,0,0,0,0,0,0,0,0,0,0,0,0,0,0,0.3165,0.3166,0,0.3221,0.3222,0.3222,0.3261,0.3262,0.3262,0.3263,0.3306,0.3306,0.3307,0,0,0,0,0,0,0,0,0,0,0,0,0,0.3099,0.31,0.3165,0.3166,0.3167,0.3221,0.3222,0.3222,0.3261,0.3262,0.3263,0.3263,0.3306,0.3306,0.3307,0,0,0,0,0,0,0,0,0,0,0,0,0,0.3136,0.31,0.3165,0.3195,0.3199,0.3221,0.3222,0.3222,0.3261,0.3262,0.3263,0.3264,0.3305,0.3306,0.3307,0.3296,0,0,0.331,0.331,0,0,0,0,0,0,0,0,0.3134,0.3138,0.319,0.3193,0.3197,0.3238,0.3214,0.3247,0.3261,0.3234,0.3263,0.3264,0.3283,0.3286,0.3291,0.3298,0.33,0.331,0.3311,0.3311,0.3311,0,0,0,0,0,0,0,0.3131,0.3136,0.3185,0.3191,0.3195,0.3209,0.3214,0.3221,0.3251,0.3237,0.324,0.3251,0.3285,0.329,0.3292,0.33,0.331,0.3311,0.3311,0.3312,0.338,0.3382,0,0,0,0,0,0,0.3129,0.3133,0.3183,0.3187,0.317,0.3209,0.3216,0.3221,0.3251,0.3258,0.325,0.3253,0.3288,0.3291,0.3294,0.338,0.3311,0.3312,0.3312,0.3379,0.3381,0.3382,0,0,0,0,0,0,0.3127,0.3132,0.3181,0.3164,0.3171,0.321,0.3216,0.3222,0.3253,0.3262,0.3268,0.3278,0.3288,0.3292,0.3326,0.3378,0.3312,0.3313,0.3378,0.338,0.3381,0.349,0,0,0,0,0,0,0.3125,0.3131,0.3144,0.3163,0.3172,0.3215,0.3216,0.3223,0.3258,0.3262,0.3287,0.329,0.3289,0.3324,0.3326,0.3378,0.3314,0.3376,0.3379,0.3381,0.3485,0.3495,0.3504,0,0,0,0,0,0.3122,0.3131,0.3144,0.3151,0.3185,0.3216,0.3222,0.325,0.3259,0.3279,0.3297,0.3291,0.3341,0.3326,0.3328,0.3382,0.3375,0.3378,0.3381,0.348,0.3493,0.3504,0,0,0,0,0,0,0.3106,0.3137,0.3152,0.317,0.3203,0.3225,0.3245,0.3263,0.3292,0.3302,0.3304,0.3309,0.3363,0.3346,0.3329,0.3405,0.3358,0.3361,0.3433,0.3445,0.3455,0.3435,0.3315,0,0,0,0,0,0.3109,0.3131,0.316,0.3181,0.3194,0.3224,0.3243,0.3267,0.3291,0.3306,0.3327,0.3345,0.3371,0.3387,0.3402,0.3437,0.3433,0.3471,0.3481,0.349,0.3474,0.3527,0.3541,0.3391,0.3391,0.3391,0,0,0.3106,0.3131,0.3141,0.3181,0.3204,0.3232,0.3237,0.3277,0.3311,0.3304,0.3358,0.3383,0.3387,0.3438,0.346,0.3435,0.3534,0.3493,0.3501,0.3479,0.3532,0.3547,0.356,0.3393,0.3393,0.3393,0,0,0.3114,0.3135,0.3157,0.3192,0.3242,0.3255,0.3273,0.3315,0.3344,0.3387,0.3407,0.3455,0.348,0.3511,0.3521,0.3585,0.3586,0.3602,0.3639,0.3694,0.3706,0.3718,0.375,0.3763,0.3606,0.3606,0.3607,0,0.3118,0.3139,0.317,0.3209,0.3234,0.3268,0.3296,0.333,0.3386,0.3421,0.3414,0.3496,0.3508,0.358,0.3608,0.361,0.3633,0.3602,0.3709,0.3719,0.3729,0.3759,0.3772,0.3612,0.3611,0.3611,0.361,0,0.314,0.3169,0.3185,0.3239,0.3275,0.3305,0.3353,0.3406,0.3435,0.3473,0.3555,0.3577,0.3626,0.3652,0.3646,0.3738,0.3732,0.3721,0.3684,0.3751,0.3778,0.379,0.362,0.3618,0.3616,0.3615,0,0,0.3114,0.3183,0.3192,0.3222,0.3292,0.3321,0.3388,0.3452,0.3503,0.3566,0.363,0.369,0.3722,0.3734,0.3761,0.3801,0.3901,0.3795,0.3796,0.3834,0.4022,0.3973,0.3981,0.3929,0.3931,0.3933,0.402,0,0.3118,0.3172,0.3213,0.3269,0.3291,0.336,0.3414,0.3495,0.3549,0.3626,0.3683,0.3748,0.3749,0.3789,0.3839,0.3889,0.3935,0.3877,0.3941,0.3942,0.3898,0.3993,0.3683,0.3731,0.4031,0.4033,0.4034,0,0.3117,0.3154,0.3197,0.3277,0.3295,0.3343,0.3441,0.3504,0.3625,0.3673,0.3763,0.3808,0.3906,0.3875,0.3997,0.397,0.3999,0.4019,0.4024,0.3939,0.3915,0.3707,0.3741,0.4054,0.4052,0.4051,0.4049,0,0.3061,0.314,0.3165,0.3197,0.3294,0.3345,0.3407,0.3525,0.3588,0.3719,0.3784,0.3887,0.3962,0.4014,0.4082,0.4054,0.4194,0.4157,0.4134,0.413,0.3852,0.382,0.4223,0.4223,0.4223,0.4223,0.4223,0,0.3034,0.306,0.3146,0.3169,0.3222,0.3318,0.3394,0.3482,0.3606,0.3691,0.3813,0.3892,0.4005,0.4103,0.4122,0.4184,0.4239,0.4151,0.4159,0.3883,0.3854,0.4107,0.4092,0.4226,0.4225,0.4225,0.4224,0,0.2966,0.3018,0.306,0.3161,0.3195,0.3245,0.3379,0.3432,0.3579,0.3695,0.3747,0.3934,0.407,0.4164,0.4266,0.4247,0.4289,0.4289,0.3954,0.3921,0.4169,0.4159,0.4257,0.4256,0.4256,0.4255,0.4255,0,0.2918,0.2936,0.3037,0.3062,0.3109,0.3195,0.3243,0.3394,0.3463,0.3707,0.3755,0.3954,0.406,0.4218,0.422,0.426,0.4315,0.3979,0.3854,0.418,0.4178,0.4169,0.416,0.353,0.3524,0.3518,0.3514,0,0.2841,0.2891,0.293,0.2983,0.3035,0.3087,0.3185,0.3228,0.3418,0.3535,0.3701,0.3814,0.401,0.3932,0.402,0.3986,0.3945,0.3876,0.4318,0.3581,0.3504,0.35,0.3512,0.3468,0.3472,0.3476,0.3478,0.348,0.2775,0.2788,0.285,0.2887,0.2936,0.296,0.2961,0.3069,0.3158,0.3298,0.3512,0.3588,0.3679,0.3657,0.357,0.3505,0.3766,0.3578,0.3589,0.3607,0.3519,0.3447,0.3382,0.3385,0.3389,0.3392,0.3395,0,0.2688,0.2718,0.2747,0.2773,0.2757,0.2845,0.2893,0.2863,0.2898,0.3068,0.3192,0.3029,0.3025,0.31,0.2948,0.2974,0.2891,0.2836,0.2688,0.274,0.2785,0.2648,0.2284,0.2279,0.2275,0.2272,0,0,0.2644,0.2629,0.2642,0.2579,0.26,0.2538,0.2533,0.2522,0.2585,0.2592,0.2622,0.2894,0.3031,0.261,0.258,0.2396,0.2529,0.2302,0.3207,0.3087,0.3125,0.3249,0.3105,0,0,0,0,0]},{"header":{"parameterUnit":"m.s-1","parameterCategory":2,"la1":30.2991,"la2":30.254,"lo1":-89.0895,"lo2":-89.0444,"dy":0.0017,"dx":0.0017,"nx":28,"ny":28,"refTime":"2024-03-06T03:00:00:Z","depth":"2","parameterNumber":3,"parameterNumberName":"V-component_of_CURRENTS"},"data":[0,0,0,0,0,0,0,0,0,0,0,0,0,0,0,0,0,0,0,0,0,0,0,0,0,0,0,0,0,0,0,0,0,0,0,0,0,0,0,0,0,0,0,0,0,0,0,0,0,0,0,0,0,0,0,0,0,0,0.0181,0.0181,0,0.0113,0.0112,0.0112,0.005,0.0049,0.0049,0.0048,-0.0054,-0.0056,-0.0058,0,0,0,0,0,0,0,0,0,0,0,0,0,0.0201,0.0201,0.0181,0.0181,0.018,0.0114,0.0112,0.0111,0.005,0.0049,0.0049,0.0048,-0.0053,-0.0056,-0.0058,0,0,0,0,0,0,0,0,0,0,0,0,0,0.0167,0.0201,0.0181,0.0143,0.0139,0.0114,0.0112,0.0111,0.005,0.0049,0.0048,0.0048,-0.0052,-0.0055,-0.0059,-0.0062,0,0,-0.0069,-0.007,0,0,0,0,0,0,0,0,0.0169,0.0166,0.0149,0.0145,0.0141,0.0091,0.0082,0.0052,0.005,0.0082,0.0048,0.0047,-0.0007,-0.0014,-0.0027,-0.0067,-0.0071,-0.0069,-0.0071,-0.0072,-0.0073,0,0,0,0,0,0,0,0.0172,0.0168,0.0152,0.0149,0.0144,0.011,0.0104,0.0076,0.0041,0.0079,0.0075,0.0071,-0.001,-0.0024,-0.003,-0.0073,-0.0069,-0.0072,-0.0074,-0.0075,-0.0128,-0.0128,0,0,0,0,0,0,0.0188,0.0171,0.0155,0.0151,0.0155,0.011,0.0104,0.0106,0.0042,0.0032,0.0071,0.0068,-0.0018,-0.0026,-0.0034,-0.004,-0.0072,-0.0075,-0.0077,-0.0129,-0.0128,-0.0128,0,0,0,0,0,0,0.0189,0.0188,0.0157,0.016,0.0154,0.0112,0.0114,0.0105,0.0091,0.0037,0.0026,0.0067,-0.0019,-0.0029,-0.0054,-0.0045,-0.0077,-0.008,-0.0129,-0.0129,-0.0128,-0.0055,0,0,0,0,0,0,0.019,0.0188,0.0191,0.0162,0.0155,0.0152,0.0115,0.0105,0.0091,0.0086,0.0029,0.0019,-0.002,-0.0049,-0.0058,-0.005,-0.0082,-0.013,-0.0129,-0.0128,-0.0058,-0.0052,-0.0046,0,0,0,0,0,0.0191,0.0208,0.0192,0.019,0.0162,0.0153,0.0147,0.0111,0.0092,0.0094,0.0053,0.0021,-0.0049,-0.0051,-0.0061,-0.0055,-0.0131,-0.0129,-0.0128,-0.0061,-0.0053,-0.0046,0,0,0,0,0,0,0.0219,0.0203,0.0185,0.0195,0.0178,0.0144,0.0144,0.0119,0.0089,0.0081,0.0028,0.0015,-0.0005,-0.0037,-0.0038,-0.0066,-0.0095,-0.0096,-0.004,-0.0033,-0.0027,0.0003,-0.0085,0,0,0,0,0,0.0227,0.0233,0.0211,0.0217,0.0216,0.018,0.017,0.0147,0.0118,0.0103,0.0065,0.0024,-0.0007,-0.0025,-0.0057,-0.007,-0.0103,-0.0073,-0.0067,-0.0061,-0.0043,-0.009,-0.0087,-0.0123,-0.0123,-0.0123,0,0,0.0242,0.023,0.0235,0.0223,0.0207,0.0218,0.0172,0.0166,0.0167,0.0098,0.0088,0.0044,-0.0005,-0.0023,-0.0034,-0.0049,-0.0069,-0.006,-0.0055,-0.004,-0.0089,-0.0085,-0.0082,-0.0123,-0.0123,-0.0123,0,0,0.0276,0.0265,0.0282,0.0276,0.0258,0.0243,0.0247,0.0217,0.0198,0.0183,0.0132,0.0099,0.0053,0.002,-0.0002,0.002,-0.0036,0.0004,0.0057,0.0011,0.0014,0.0016,-0.0021,-0.0023,0.0006,0.0007,0.0007,0,0.0289,0.031,0.0286,0.0301,0.0306,0.0264,0.0288,0.0268,0.0229,0.0221,0.0191,0.0124,0.0078,0.0059,0.0063,0.0034,-0.0,0.0034,0.0019,0.002,0.0021,-0.0017,-0.002,0.001,0.001,0.0009,0.0009,0,0.0338,0.0352,0.0367,0.0375,0.0377,0.0391,0.0369,0.036,0.0332,0.0306,0.0278,0.021,0.0173,0.0147,0.011,0.0095,0.0066,0.0032,0.0004,0.0029,-0.0013,-0.0017,0.0015,0.0014,0.0013,0.0012,0,0,0.0375,0.0398,0.0403,0.0424,0.0418,0.0432,0.0439,0.0439,0.0454,0.0395,0.0402,0.0333,0.029,0.0263,0.0203,0.016,0.0128,0.0105,0.0101,0.0074,0.003,0.0005,-0.0002,0.0084,0.0083,0.0083,-0.0001,0,0.042,0.0475,0.0469,0.0525,0.0557,0.0531,0.0551,0.0539,0.0515,0.051,0.043,0.0413,0.0336,0.0318,0.0262,0.0165,0.012,0.0155,0.0005,0.0001,-0.002,-0.0007,0.0028,-0.0045,-0.0006,-0.0007,-0.0007,0,0.0468,0.0502,0.0569,0.0612,0.0626,0.0654,0.0685,0.0695,0.0669,0.0646,0.0602,0.0538,0.0472,0.0401,0.0251,0.0274,0.0167,0.0083,0.0077,0.003,-0.0031,-0.0065,-0.0055,-0.0016,-0.0015,-0.0014,-0.0014,0,0.0516,0.0571,0.0634,0.0648,0.0691,0.0719,0.0742,0.074,0.0769,0.0737,0.0748,0.0643,0.0606,0.0456,0.028,0.0263,0.0112,0.0062,-0.006,-0.0063,-0.0072,-0.0075,-0.0039,-0.0039,-0.0039,-0.0039,-0.0039,0,0.0568,0.0616,0.0668,0.0704,0.0791,0.079,0.087,0.087,0.0887,0.0944,0.0829,0.0841,0.0618,0.0501,0.0321,0.0126,0.0139,-0.0039,-0.0084,-0.0046,-0.0046,-0.0052,-0.0053,-0.0042,-0.0041,-0.0041,-0.004,0,0.0611,0.064,0.0719,0.0787,0.0818,0.0882,0.097,0.1024,0.1025,0.1094,0.1091,0.099,0.0839,0.0609,0.037,0.0198,-0.0,-0.0075,-0.001,-0.0045,-0.0157,-0.0152,-0.0219,-0.022,-0.0221,-0.0222,-0.0223,0,0.064,0.0686,0.079,0.0851,0.089,0.0984,0.1054,0.1091,0.1158,0.1197,0.1239,0.1118,0.1055,0.0689,0.0359,0.0043,-0.0001,-0.0135,-0.0166,-0.0137,-0.0174,-0.0167,-0.0161,-0.0153,-0.0153,-0.0154,-0.0154,0,0.0699,0.0734,0.0805,0.0934,0.1026,0.1137,0.1241,0.1316,0.1375,0.1431,0.1481,0.1435,0.11,0.0775,0.0335,0.0127,-0.0087,-0.015,-0.0137,-0.011,-0.0081,-0.0116,-0.0111,-0.0156,-0.0155,-0.0155,-0.0155,-0.0155,0.0747,0.0807,0.0904,0.1028,0.1138,0.1278,0.1378,0.149,0.1617,0.171,0.1661,0.1598,0.1234,0.067,0.0289,-0.011,-0.009,-0.0231,-0.0227,-0.0225,-0.0199,-0.0174,-0.026,-0.026,-0.0261,-0.0261,-0.0261,0,0.0807,0.0877,0.099,0.1139,0.1263,0.132,0.1496,0.1594,0.1753,0.1826,0.186,0.1522,0.1154,0.0731,0.0136,-0.0213,-0.0228,-0.0317,-0.0267,-0.0261,-0.0257,-0.0232,-0.0304,-0.0305,-0.0306,-0.0307,0,0,0.084,0.0953,0.101,0.1221,0.1327,0.1505,0.1613,0.1757,0.1849,0.1918,0.1881,0.1795,0.1282,0.0844,0.0367,0.0022,-0.0033,-0.0034,0.0042,0.0164,0.0172,-0.0164,-0.0114,0,0,0,0,0]}],[{"header":{"parameterUnit":"m.s-1","parameterCategory":2,"la1":30.2991,"la2":30.254,"lo1":-89.0895,"lo2":-89.0444,"dy":0.0017,"dx":0.0017,"nx":28,"ny":28,"refTime":"2024-03-06T03:00:00:Z","depth":"4","parameterNumber":2,"parameterNumberName":"U-component_of_CURRENTS"},"data":[0,0,0,0,0,0,0,0,0,0,0,0,0,0,0,0,0,0,0,0,0,0,0,0,0,0,0,0,0,0,0,0,0,0,0,0,0,0,0,0,0,0,0,0,0,0,0,0,0,0,0,0,0,0,0,0,0,0,0.1885,0.1886,0,0.1975,0.1975,0.1976,0.2044,0.2044,0.2045,0.2046,0.2165,0.2167,0.2169,0,0,0,0,0,0,0,0,0,0,0,0,0,0.1781,0.1782,0.1885,0.1887,0.1888,0.1974,0.1975,0.1976,0.2043,0.2044,0.2046,0.2047,0.2164,0.2167,0.217,0,0,0,0,0,0,0,0,0,0,0,0,0,0.1841,0.1783,0.1885,0.1934,0.194,0.1974,0.1975,0.1977,0.2043,0.2045,0.2046,0.2047,0.2163,0.2167,0.217,0.2165,0,0,0.2181,0.2182,0,0,0,0,0,0,0,0,0.1837,0.1844,0.1925,0.1931,0.1937,0.2002,0.1983,0.2042,0.2043,0.2001,0.2046,0.2048,0.2114,0.2122,0.2131,0.217,0.2175,0.2181,0.2183,0.2185,0.2186,0,0,0,0,0,0,0,0.1833,0.1841,0.1917,0.1927,0.1934,0.1955,0.1964,0.1994,0.2047,0.2004,0.201,0.2025,0.2117,0.2127,0.2134,0.2177,0.2181,0.2184,0.2186,0.2187,0.2353,0.2355,0,0,0,0,0,0,0.1826,0.1837,0.1915,0.192,0.1893,0.1956,0.1966,0.1977,0.2046,0.2059,0.2023,0.2028,0.2121,0.213,0.2139,0.2254,0.2185,0.2188,0.219,0.235,0.2353,0.2356,0,0,0,0,0,0,0.1824,0.1832,0.1911,0.1883,0.1895,0.1956,0.1968,0.1978,0.2033,0.2061,0.2074,0.2073,0.2122,0.2134,0.2211,0.2255,0.2189,0.2193,0.2348,0.2351,0.2354,0.241,0,0,0,0,0,0,0.182,0.1831,0.1855,0.1883,0.1897,0.1957,0.1967,0.1979,0.2038,0.2046,0.2106,0.2116,0.2124,0.2205,0.2214,0.2259,0.2195,0.2345,0.2349,0.2353,0.2405,0.2415,0.2423,0,0,0,0,0,0.1816,0.184,0.1855,0.1866,0.1922,0.1959,0.1968,0.2013,0.204,0.2067,0.2119,0.2117,0.2239,0.221,0.222,0.2266,0.2343,0.2348,0.2353,0.2401,0.2413,0.2423,0,0,0,0,0,0,0.181,0.185,0.1868,0.1904,0.1941,0.1972,0.2013,0.2037,0.2097,0.2122,0.2145,0.2158,0.2243,0.2249,0.2217,0.2328,0.2291,0.2298,0.2324,0.2336,0.2345,0.2359,0.2198,0,0,0,0,0,0.1818,0.185,0.1883,0.1919,0.1943,0.1985,0.2015,0.2044,0.2091,0.2121,0.2161,0.2212,0.2262,0.2296,0.2334,0.2394,0.2407,0.2432,0.2441,0.2448,0.2468,0.2521,0.2536,0.2373,0.2372,0.2372,0,0,0.1825,0.1855,0.1874,0.1922,0.196,0.2,0.2008,0.2066,0.2111,0.2123,0.2213,0.2248,0.2287,0.2357,0.2395,0.2374,0.2502,0.2455,0.246,0.2477,0.2528,0.2544,0.2558,0.2376,0.2375,0.2375,0,0,0.1848,0.1887,0.192,0.1955,0.2018,0.2041,0.2067,0.212,0.2163,0.2239,0.2265,0.2332,0.2404,0.2437,0.2463,0.2546,0.2549,0.2563,0.2621,0.2672,0.2686,0.2698,0.2732,0.2746,0.2566,0.2566,0.2566,0,0.1861,0.19,0.1936,0.198,0.2017,0.2065,0.2107,0.2155,0.2228,0.2272,0.2284,0.2413,0.2442,0.2529,0.2564,0.2567,0.2594,0.2572,0.2683,0.2695,0.2707,0.2738,0.2754,0.2569,0.2569,0.2569,0.2568,0,0.1895,0.1943,0.1972,0.2039,0.2083,0.2131,0.2191,0.2254,0.2313,0.2356,0.2467,0.251,0.2589,0.2606,0.2618,0.2717,0.2709,0.2686,0.265,0.2726,0.2755,0.277,0.2574,0.2573,0.2572,0.2571,0,0,0.1876,0.1974,0.1989,0.2028,0.2118,0.2152,0.2246,0.2328,0.2403,0.248,0.2571,0.2661,0.2696,0.2729,0.2748,0.2795,0.2895,0.2788,0.2789,0.2814,0.3012,0.2824,0.2822,0.2896,0.2899,0.2902,0.2997,0,0.1895,0.1969,0.202,0.2103,0.2142,0.2222,0.2303,0.2392,0.2474,0.2573,0.2644,0.2739,0.2739,0.2791,0.2844,0.2889,0.294,0.2871,0.2943,0.2945,0.2762,0.2835,0.2911,0.3008,0.3012,0.3014,0.3016,0,0.1904,0.1954,0.2031,0.2134,0.2164,0.2231,0.2366,0.2444,0.2589,0.2661,0.2767,0.2823,0.2934,0.2909,0.3034,0.2997,0.3025,0.3041,0.3045,0.2862,0.2785,0.292,0.3043,0.3041,0.3039,0.3037,0.3036,0,0.1851,0.1958,0.2019,0.2055,0.2183,0.2254,0.2336,0.248,0.256,0.2727,0.2807,0.2928,0.3014,0.3072,0.3132,0.3101,0.3246,0.3193,0.3048,0.3035,0.315,0.3136,0.3281,0.3281,0.3281,0.3281,0.328,0,0.1823,0.1877,0.201,0.2042,0.2136,0.2242,0.2361,0.2468,0.2623,0.2719,0.2856,0.2937,0.3067,0.3156,0.3178,0.3165,0.3289,0.3078,0.3053,0.317,0.3158,0.316,0.3144,0.3284,0.3283,0.3283,0.3282,0,0.1748,0.1834,0.1914,0.2062,0.2114,0.2188,0.2361,0.2437,0.261,0.2742,0.2804,0.2987,0.3097,0.3191,0.3294,0.3208,0.3217,0.3182,0.3322,0.3301,0.2959,0.2946,0.3011,0.3005,0.3,0.2996,0.2993,0,0.1707,0.1744,0.1909,0.196,0.2035,0.2158,0.2236,0.2415,0.2492,0.274,0.2784,0.2967,0.3065,0.3064,0.3169,0.3195,0.3159,0.3136,0.3025,0.2965,0.2936,0.293,0.2924,0.2985,0.2984,0.2983,0.2981,0,0.1627,0.1713,0.1778,0.1885,0.1977,0.2058,0.2186,0.2226,0.2432,0.261,0.2703,0.2766,0.2886,0.2947,0.3003,0.3009,0.3128,0.3084,0.3093,0.2988,0.2934,0.2909,0.2908,0.2965,0.2967,0.2969,0.297,0,0.1577,0.1604,0.1706,0.1784,0.1886,0.1926,0.2009,0.21,0.2199,0.2467,0.2491,0.2687,0.286,0.2853,0.29,0.2899,0.2839,0.2726,0.2752,0.2772,0.2646,0.254,0.2444,0,0,0,0,0,0.1512,0.1525,0.1589,0.166,0.1752,0.1814,0.1957,0.2044,0.2242,0.2248,0.2364,0.2462,0.2538,0.2633,0.2583,0.2783,0.2845,0.2709,0.2726,0.2872,0.2891,0.2764,0,0,0,0,0,0,0.1466,0.1522,0.1542,0.1535,0.156,0.1641,0.1726,0.1862,0.1874,0.209,0.2145,0.2309,0.242,0.2546,0.2536,0.2564,0.2521,0.2832,0.2825,0.2861,0.2878,0.2894,0.277,0,0,0,0,0]},{"header":{"parameterUnit":"m.s-1","parameterCategory":2,"la1":30.2991,"la2":30.254,"lo1":-89.0895,"lo2":-89.0444,"dy":0.0017,"dx":0.0017,"nx":28,"ny":28,"refTime":"2024-03-06T03:00:00:Z","depth":"4","parameterNumber":3,"parameterNumberName":"V-component_of_CURRENTS"},"data":[0,0,0,0,0,0,0,0,0,0,0,0,0,0,0,0,0,0,0,0,0,0,0,0,0,0,0,0,0,0,0,0,0,0,0,0,0,0,0,0,0,0,0,0,0,0,0,0,0,0,0,0,0,0,0,0,0,0,0.0223,0.0223,0,0.0182,0.0181,0.0181,0.015,0.015,0.015,0.0149,0.0079,0.0078,0.0076,0,0,0,0,0,0,0,0,0,0,0,0,0,0.023,0.023,0.0223,0.0223,0.0222,0.0182,0.0181,0.018,0.015,0.015,0.015,0.0149,0.008,0.0078,0.0076,0,0,0,0,0,0,0,0,0,0,0,0,0,0.0211,0.023,0.0223,0.0203,0.0201,0.0182,0.0181,0.018,0.015,0.015,0.0149,0.0149,0.008,0.0078,0.0075,0.0065,0,0,0.0068,0.0067,0,0,0,0,0,0,0,0,0.0212,0.0211,0.0206,0.0204,0.0202,0.0172,0.0158,0.0141,0.015,0.0168,0.0149,0.0149,0.0108,0.0103,0.0095,0.0062,0.0059,0.0067,0.0066,0.0065,0.0064,0,0,0,0,0,0,0,0.0214,0.0212,0.0206,0.0206,0.0203,0.018,0.0178,0.0154,0.0139,0.0167,0.0165,0.0162,0.0107,0.0098,0.0093,0.0058,0.0068,0.0065,0.0064,0.0063,0.0017,0.0018,0,0,0,0,0,0,0.0223,0.0214,0.0207,0.0205,0.0207,0.0181,0.0177,0.0181,0.014,0.0134,0.0162,0.016,0.0102,0.0096,0.0091,0.0092,0.0065,0.0062,0.0061,0.0017,0.0017,0.0018,0,0,0,0,0,0,0.0224,0.0223,0.0209,0.0208,0.0205,0.0181,0.0185,0.018,0.0176,0.0137,0.013,0.0164,0.0102,0.0094,0.0079,0.0089,0.0061,0.0059,0.0017,0.0017,0.0018,0.0085,0,0,0,0,0,0,0.0224,0.0224,0.0229,0.0209,0.0205,0.0208,0.0185,0.0179,0.0175,0.0173,0.0136,0.0129,0.0101,0.0083,0.0077,0.0085,0.0057,0.0016,0.0017,0.0018,0.0082,0.0088,0.0092,0,0,0,0,0,0.0225,0.0239,0.023,0.0229,0.0214,0.0208,0.0205,0.0185,0.0176,0.018,0.0155,0.013,0.0082,0.0082,0.0074,0.0081,0.0016,0.0017,0.0017,0.008,0.0087,0.0092,0,0,0,0,0,0,0.0244,0.0237,0.0226,0.0237,0.0226,0.0204,0.0207,0.0193,0.0176,0.0174,0.0136,0.0128,0.0117,0.009,0.009,0.0069,0.0044,0.0043,0.0094,0.01,0.0105,0.012,0.0055,0,0,0,0,0,0.0251,0.026,0.0245,0.0253,0.0252,0.023,0.0225,0.0213,0.0196,0.0188,0.0163,0.0135,0.0113,0.0101,0.0077,0.0067,0.003,0.0065,0.007,0.0074,0.008,0.0033,0.0034,0.002,0.002,0.002,0,0,0.0262,0.0257,0.0262,0.0257,0.0248,0.0256,0.0227,0.0227,0.023,0.0183,0.0182,0.0153,0.0115,0.0104,0.0097,0.0084,0.0059,0.0075,0.0079,0.0083,0.0034,0.0035,0.0036,0.0021,0.0021,0.0021,0,0,0.0286,0.0283,0.0298,0.0296,0.0287,0.0277,0.0282,0.0266,0.0256,0.025,0.0216,0.0195,0.0164,0.0137,0.012,0.0137,0.0088,0.0128,0.0165,0.0119,0.0119,0.012,0.0076,0.0072,0.013,0.013,0.013,0,0.0296,0.0314,0.0301,0.0313,0.0319,0.0293,0.0313,0.03,0.0279,0.0275,0.026,0.0213,0.0179,0.0162,0.0168,0.0148,0.0115,0.0147,0.0126,0.0125,0.0124,0.0079,0.0073,0.0133,0.0133,0.0133,0.0132,0,0.033,0.0344,0.0356,0.0366,0.037,0.0383,0.037,0.0369,0.0355,0.0339,0.0321,0.0273,0.0246,0.023,0.0205,0.0186,0.0162,0.0139,0.0113,0.013,0.0081,0.0074,0.0138,0.0137,0.0136,0.0135,0,0,0.0351,0.0376,0.038,0.0399,0.0401,0.0413,0.0421,0.0423,0.0434,0.0399,0.0403,0.0356,0.0328,0.0305,0.0264,0.0224,0.0187,0.0186,0.0182,0.0148,0.0086,0.0073,0.0064,0.0161,0.016,0.0159,0.0055,0,0.038,0.0422,0.0425,0.047,0.0494,0.0483,0.0498,0.0494,0.048,0.0476,0.0418,0.0407,0.0357,0.0348,0.0298,0.0217,0.0172,0.0218,0.0071,0.0067,0.0057,0.0057,0.0157,0.005,0.0048,0.0047,0.0046,0,0.041,0.0437,0.049,0.0531,0.0542,0.0567,0.0594,0.0605,0.0585,0.0571,0.0538,0.0493,0.0435,0.039,0.0252,0.0284,0.0195,0.0125,0.0119,0.008,0.0041,0.0027,0.0033,0.0034,0.0035,0.0036,0.0036,0,0.0434,0.0482,0.0531,0.0546,0.0586,0.0612,0.0636,0.0637,0.066,0.0636,0.0642,0.0556,0.0522,0.0398,0.0254,0.0252,0.0097,0.0071,-0.0028,-0.003,-0.0017,-0.0016,-0.0028,-0.0027,-0.0027,-0.0027,-0.0027,0,0.0461,0.0501,0.0553,0.0582,0.0653,0.0662,0.0727,0.073,0.0744,0.078,0.07,0.0693,0.0524,0.0415,0.0273,0.0103,0.0105,-0.0021,-0.0057,0.0014,0.0019,-0.0022,-0.002,-0.0031,-0.003,-0.0029,-0.0028,0,0.0478,0.0508,0.0573,0.0637,0.0668,0.0721,0.0803,0.0842,0.0846,0.0887,0.0885,0.0794,0.065,0.0468,0.0262,0.0139,-0.0029,-0.009,0.0004,-0.0026,-0.0131,-0.0124,-0.0212,-0.0213,-0.0214,-0.0215,-0.0216,0,0.0488,0.0525,0.0622,0.0673,0.0711,0.0794,0.0851,0.0891,0.0936,0.0949,0.0966,0.0852,0.0765,0.0467,0.0265,-0.0016,-0.0057,-0.0149,-0.0146,-0.0123,-0.015,-0.0142,-0.0134,-0.0218,-0.0218,-0.0218,-0.0219,0,0.0513,0.0551,0.0609,0.0717,0.0796,0.0889,0.0973,0.1012,0.1059,0.1064,0.1033,0.0885,0.0718,0.0476,0.0256,0.0055,-0.0093,-0.0162,-0.0161,-0.0159,-0.0132,-0.0155,-0.0146,-0.0222,-0.0222,-0.0222,-0.0221,0,0.0535,0.0578,0.066,0.0756,0.0859,0.0955,0.0998,0.1051,0.1098,0.1107,0.1094,0.0918,0.0818,0.0513,0.0313,0.0109,0.0052,-0.0019,-0.0026,-0.0025,0.0056,0.0119,0.0076,0,0,0,0,0,0.0551,0.0603,0.069,0.0798,0.09,0.0969,0.1068,0.11,0.1144,0.1133,0.1119,0.0967,0.0675,0.0547,0.0341,0.0271,0.0003,0.002,-0.0086,-0.0244,-0.0239,-0.0179,0,0,0,0,0,0,0.0561,0.0643,0.0687,0.082,0.0897,0.1018,0.1087,0.1117,0.1109,0.1118,0.0965,0.0906,0.0617,0.0793,0.0335,0.0273,0.0175,-0.0112,-0.0117,-0.0246,-0.0242,-0.0239,-0.0175,0,0,0,0,0]}]]